Time,TemperatureF,DewpointF,PressureIn,WindDirection,WindDirectionDegrees,WindSpeedMPH,WindSpeedGustMPH,Humidity,HourlyPrecipIn,Conditions,Clouds,dailyrainin,SoftwareType,DateUTC
2013-04-05 00:00:00,53.0,16.1,30.17,North,360,0.0,3.0,23,0.00,CLR,,0.00,WeatherDisplay:10.37,2013-04-05 07:00:00,
2013-04-05 00:10:00,52.0,16.3,30.16,North,360,2.0,5.0,24,0.00,CLR,,0.00,WeatherDisplay:10.37,2013-04-05 07:10:00,
2013-04-05 00:20:00,52.0,17.2,30.17,North,360,1.0,2.0,25,0.00,CLR,,0.00,WeatherDisplay:10.37,2013-04-05 07:20:00,
2013-04-05 00:30:00,51.0,16.4,30.17,North,360,0.0,4.0,25,0.00,CLR,,0.00,WeatherDisplay:10.37,2013-04-05 07:30:00,
2013-04-05 00:40:00,52.0,18.1,30.17,North,360,3.0,4.0,26,0.00,CLR,,0.00,WeatherDisplay:10.37,2013-04-05 07:40:00,
2013-04-05 00:50:00,51.0,16.4,30.16,North,360,0.0,3.0,25,0.00,CLR,,0.00,WeatherDisplay:10.37,2013-04-05 07:50:00,
2013-04-05 01:00:00,51.0,16.4,30.17,North,360,0.0,3.0,25,0.00,CLR,,0.00,WeatherDisplay:10.37,2013-04-05 08:00:00,
2013-04-05 01:10:00,51.0,14.4,30.17,North,360,0.0,0.0,23,0.00,CLR,,0.00,WeatherDisplay:10.37,2013-04-05 08:10:00,
2013-04-05 01:20:00,51.0,15.4,30.17,NNE,20,0.0,8.0,24,0.00,CLR,,0.00,WeatherDisplay:10.37,2013-04-05 08:20:00,
2013-04-05 01:30:00,50.0,15.5,30.17,NNE,22,0.0,5.0,25,0.00,CLR,,0.00,WeatherDisplay:10.37,2013-04-05 08:30:00,
2013-04-05 01:40:00,50.0,15.5,30.17,NNE,22,0.0,0.0,25,0.00,CLR,,0.00,WeatherDisplay:10.37,2013-04-05 08:40:00,
2013-04-05 01:50:00,49.0,15.6,30.18,North,4,3.0,6.0,26,0.00,CLR,,0.00,WeatherDisplay:10.37,2013-04-05 08:50:00,
2013-04-05 02:00:00,49.0,16.4,30.17,North,360,1.0,4.0,27,0.00,CLR,,0.00,WeatherDisplay:10.37,2013-04-05 09:00:00,
2013-04-05 02:10:00,49.0,15.6,30.17,North,359,0.0,4.0,26,0.00,CLR,,0.00,WeatherDisplay:10.37,2013-04-05 09:10:00,
2013-04-05 02:20:00,51.0,15.4,30.16,NW,315,2.0,6.0,24,0.00,CLR,,0.00,WeatherDisplay:10.37,2013-04-05 09:20:00,
2013-04-05 02:30:00,51.0,15.4,30.16,NW,315,2.0,4.0,24,0.00,CLR,,0.00,WeatherDisplay:10.37,2013-04-05 09:30:00,
2013-04-05 02:40:00,50.0,15.5,30.16,NW,315,3.0,5.0,25,0.00,CLR,,0.00,WeatherDisplay:10.37,2013-04-05 09:40:00,
2013-04-05 02:50:00,50.0,15.5,30.16,NW,315,3.0,4.0,25,0.00,CLR,,0.00,WeatherDisplay:10.37,2013-04-05 09:50:00,
2013-04-05 03:00:00,50.0,15.5,30.16,NW,315,2.0,4.0,25,0.00,CLR,,0.00,WeatherDisplay:10.37,2013-04-05 10:00:00,
2013-04-05 03:10:00,50.0,15.5,30.16,NW,315,0.0,3.0,25,0.00,CLR,,0.00,WeatherDisplay:10.37,2013-04-05 10:10:00,
2013-04-05 03:20:00,49.0,15.6,30.17,NW,315,0.0,2.0,26,0.00,CLR,,0.00,WeatherDisplay:10.37,2013-04-05 10:20:00,
2013-04-05 03:30:00,47.0,16.3,30.17,NW,315,0.0,0.0,29,0.00,CLR,,0.00,WeatherDisplay:10.37,2013-04-05 10:30:00,
2013-04-05 03:40:00,46.0,19.8,30.17,NW,323,2.0,4.0,35,0.00,CLR,,0.00,WeatherDisplay:10.37,2013-04-05 10:40:00,
2013-04-05 03:50:00,46.0,19.8,30.17,NNW,337,5.0,6.0,35,0.00,CLR,,0.00,WeatherDisplay:10.37,2013-04-05 10:50:00,
2013-04-05 04:00:00,46.0,18.5,30.17,NNW,337,5.0,6.0,33,0.00,CLR,,0.00,WeatherDisplay:10.37,2013-04-05 11:00:00,
2013-04-05 04:10:00,46.0,18.5,30.17,North,353,6.0,8.0,33,0.00,CLR,,0.00,WeatherDisplay:10.37,2013-04-05 11:10:00,
2013-04-05 04:20:00,47.0,18.6,30.16,North,360,5.0,6.0,32,0.00,CLR,,0.00,WeatherDisplay:10.37,2013-04-05 11:20:00,
2013-04-05 04:30:00,45.4,17.9,30.17,North,360,3.0,5.0,33,0.00,CLR,,0.00,WeatherDisplay:10.37,2013-04-05 11:30:00,
2013-04-05 04:40:00,45.0,19.0,30.17,North,360,3.0,5.0,35,0.00,CLR,,0.00,WeatherDisplay:10.37,2013-04-05 11:40:00,
2013-04-05 04:50:00,46.0,17.7,30.17,North,360,5.0,6.0,32,0.00,CLR,,0.00,WeatherDisplay:10.37,2013-04-05 11:50:00,
2013-04-05 05:00:00,46.0,16.3,30.16,North,349,5.0,6.0,30,0.00,CLR,,0.00,WeatherDisplay:10.37,2013-04-05 12:00:00,
2013-04-05 05:10:00,47.7,16.1,30.16,NW,326,5.0,7.0,28,0.00,CLR,,0.00,WeatherDisplay:10.37,2013-04-05 12:10:00,
2013-04-05 05:30:00,48.0,16.4,30.16,NW,315,3.0,6.0,28,0.00,CLR,,0.00,WeatherDisplay:10.37,2013-04-05 12:30:00,
2013-04-05 05:50:00,47.0,16.3,30.17,NW,315,3.0,6.0,29,0.00,CLR,,0.00,WeatherDisplay:10.37,2013-04-05 12:50:00,
2013-04-05 06:00:00,46.4,16.6,30.17,NW,315,3.0,5.0,30,0.00,CLR,,0.00,WeatherDisplay:10.37,2013-04-05 13:00:00,
2013-04-05 06:10:00,45.4,15.7,30.17,NW,315,1.0,4.0,30,0.00,CLR,,0.00,WeatherDisplay:10.37,2013-04-05 13:10:00,
2013-04-05 06:20:00,44.0,16.7,30.18,NW,315,0.0,3.0,33,0.00,CLR,,0.00,WeatherDisplay:10.37,2013-04-05 13:20:00,
2013-04-05 06:30:00,43.0,16.5,30.19,NW,315,0.0,0.0,34,0.00,CLR,,0.00,WeatherDisplay:10.37,2013-04-05 13:30:00,
2013-04-05 06:40:00,42.0,16.9,30.20,NW,316,0.0,2.0,36,0.00,CLR,,0.00,WeatherDisplay:10.37,2013-04-05 13:40:00,
2013-04-05 06:50:00,42.0,18.8,30.20,NE,45,3.0,5.0,39,0.00,CLR,,0.00,WeatherDisplay:10.37,2013-04-05 13:50:00,
2013-04-05 07:00:00,42.6,18.1,30.21,NE,45,0.0,3.0,37,0.00,CLR,,0.00,WeatherDisplay:10.37,2013-04-05 14:00:00,
2013-04-05 07:10:00,46.6,19.7,30.19,NNE,18,5.0,6.0,34,0.00,CLR,,0.00,WeatherDisplay:10.37,2013-04-05 14:10:00,
2013-04-05 07:20:00,51.0,19.8,30.16,North,360,1.0,6.0,29,0.00,CLR,,0.00,WeatherDisplay:10.37,2013-04-05 14:20:00,
2013-04-05 07:30:00,54.6,22.1,30.14,North,360,0.0,2.0,28,0.00,CLR,,0.00,WeatherDisplay:10.37,2013-04-05 14:30:00,
2013-04-05 07:40:00,57.7,21.1,30.12,North,360,0.0,0.0,24,0.00,CLR,,0.00,WeatherDisplay:10.37,2013-04-05 14:40:00,
2013-04-05 07:50:00,59.0,21.2,30.11,North,360,0.0,2.0,23,0.00,CLR,,0.00,WeatherDisplay:10.37,2013-04-05 14:50:00,
2013-04-05 08:00:00,60.6,21.5,30.11,North,360,0.0,0.0,22,0.00,CLR,,0.00,WeatherDisplay:10.37,2013-04-05 15:00:00,
2013-04-05 08:10:00,64.0,22.1,30.09,NNE,13,2.0,4.0,20,0.00,CLR,,0.00,WeatherDisplay:10.37,2013-04-05 15:10:00,
2013-04-05 08:20:00,65.0,22.9,30.08,ENE,57,1.0,4.0,20,0.00,CLR,,0.00,WeatherDisplay:10.37,2013-04-05 15:20:00,
2013-04-05 08:30:00,65.0,20.4,30.09,SSE,160,3.0,7.0,18,0.00,CLR,,0.00,WeatherDisplay:10.37,2013-04-05 15:30:00,
2013-04-05 08:40:00,66.0,21.2,30.09,South,171,5.0,9.0,18,0.00,CLR,,0.00,WeatherDisplay:10.37,2013-04-05 15:40:00,
2013-04-05 09:00:00,67.0,22.1,30.08,SSW,195,8.0,12.0,18,0.00,CLR,,0.00,WeatherDisplay:10.37,2013-04-05 16:00:00,
2013-04-05 09:10:00,67.0,22.1,30.09,South,186,5.0,9.0,18,0.00,CLR,,0.00,WeatherDisplay:10.37,2013-04-05 16:10:00,
2013-04-05 09:20:00,69.0,23.7,30.07,SSW,203,7.0,9.0,18,0.00,CLR,,0.00,WeatherDisplay:10.37,2013-04-05 16:20:00,
2013-04-05 09:30:00,71.0,22.5,30.06,South,186,7.0,10.0,16,0.00,CLR,,0.00,WeatherDisplay:10.37,2013-04-05 16:30:00,
2013-04-05 09:40:00,73.0,24.1,30.06,South,190,6.0,10.0,16,0.00,CLR,,0.00,WeatherDisplay:10.37,2013-04-05 16:40:00,
2013-04-05 09:50:00,74.0,23.4,30.05,South,187,5.0,9.0,15,0.00,CLR,,0.00,WeatherDisplay:10.37,2013-04-05 16:50:00,
2013-04-05 10:00:00,74.0,21.7,30.05,SSW,208,7.0,9.0,14,0.00,CLR,,0.00,WeatherDisplay:10.37,2013-04-05 17:00:00,
2013-04-05 10:10:00,75.0,22.5,30.05,SSW,201,3.0,10.0,14,0.00,CLR,,0.00,WeatherDisplay:10.37,2013-04-05 17:10:00,
2013-04-05 10:20:00,76.0,21.6,30.05,SSW,203,8.0,10.0,13,0.00,CLR,,0.00,WeatherDisplay:10.37,2013-04-05 17:20:00,
2013-04-05 10:30:00,76.0,21.6,30.05,SW,225,3.0,9.0,13,0.00,CLR,,0.00,WeatherDisplay:10.37,2013-04-05 17:30:00,
2013-04-05 10:40:00,77.0,20.5,30.04,SW,218,7.0,10.0,12,0.00,CLR,,0.00,WeatherDisplay:10.37,2013-04-05 17:40:00,
2013-04-05 10:50:00,78.0,19.2,30.03,SSE,168,3.0,10.0,11,0.00,CLR,,0.00,WeatherDisplay:10.37,2013-04-05 17:50:00,
2013-04-05 11:00:00,78.0,19.2,30.03,SSE,155,5.0,12.0,11,0.00,CLR,,0.00,WeatherDisplay:10.37,2013-04-05 18:00:00,
2013-04-05 11:10:00,79.0,20.0,30.01,SSE,165,8.0,12.0,11,0.00,CLR,,0.00,WeatherDisplay:10.37,2013-04-05 18:10:00,
2013-04-05 11:20:00,79.0,20.0,30.01,SSW,200,8.0,14.0,11,0.00,CLR,,0.00,WeatherDisplay:10.37,2013-04-05 18:20:00,
2013-04-05 11:30:00,80.0,18.5,30.00,SSW,201,8.0,13.0,10,0.00,CLR,,0.00,WeatherDisplay:10.37,2013-04-05 18:30:00,
2013-04-05 11:40:00,81.0,16.8,30.00,SSW,197,2.0,10.0,9,0.00,CLR,,0.00,WeatherDisplay:10.37,2013-04-05 18:40:00,
2013-04-05 11:50:00,81.0,16.8,29.99,South,185,7.0,13.0,9,0.00,CLR,,0.00,WeatherDisplay:10.37,2013-04-05 18:50:00,
2013-04-05 12:00:00,81.0,16.8,29.98,SSW,203,6.0,12.0,9,0.00,CLR,,0.00,WeatherDisplay:10.37,2013-04-05 19:00:00,
2013-04-05 12:10:00,82.6,18.0,29.97,SSW,194,5.0,10.0,9,0.00,CLR,,0.00,WeatherDisplay:10.37,2013-04-05 19:10:00,
2013-04-05 12:20:00,82.0,17.6,29.97,South,191,6.0,12.0,9,0.00,CLR,,0.00,WeatherDisplay:10.37,2013-04-05 19:20:00,
2013-04-05 12:30:00,83.0,15.6,29.97,SSW,213,7.0,12.0,8,0.00,CLR,,0.00,WeatherDisplay:10.37,2013-04-05 19:30:00,
2013-04-05 12:40:00,82.0,14.8,29.96,SSW,207,10.0,15.0,8,0.00,CLR,,0.00,WeatherDisplay:10.37,2013-04-05 19:40:00,
2013-04-05 12:50:00,81.0,16.8,29.96,SSW,208,8.0,26.0,9,0.00,CLR,,0.00,WeatherDisplay:10.37,2013-04-05 19:50:00,
2013-04-05 13:00:00,81.0,16.8,29.96,SW,227,8.0,20.0,9,0.00,CLR,,0.00,WeatherDisplay:10.37,2013-04-05 20:00:00,
2013-04-05 13:10:00,83.0,18.3,29.95,WSW,250,9.0,20.0,9,0.00,CLR,,0.00,WeatherDisplay:10.37,2013-04-05 20:10:00,
2013-04-05 13:20:00,83.0,18.3,29.94,SW,221,10.0,23.0,9,0.00,CLR,,0.00,WeatherDisplay:10.37,2013-04-05 20:20:00,
2013-04-05 13:30:00,83.0,18.3,29.93,SSW,193,12.0,17.0,9,0.00,CLR,,0.00,WeatherDisplay:10.37,2013-04-05 20:30:00,
2013-04-05 13:40:00,82.0,17.6,29.94,SW,229,9.0,22.0,9,0.00,CLR,,0.00,WeatherDisplay:10.37,2013-04-05 20:40:00,
2013-04-05 13:50:00,83.0,18.3,29.93,SW,236,13.0,20.0,9,0.00,CLR,,0.00,WeatherDisplay:10.37,2013-04-05 20:50:00,
2013-04-05 14:10:00,83.0,18.3,29.93,WSW,256,10.0,20.0,9,0.00,CLR,,0.00,WeatherDisplay:10.37,2013-04-05 21:10:00,
2013-04-05 14:20:00,83.3,18.6,29.91,WSW,253,14.0,22.0,9,0.00,CLR,,0.00,WeatherDisplay:10.37,2013-04-05 21:20:00,
2013-04-05 14:30:00,83.0,18.3,29.92,WSW,248,13.0,20.0,9,0.00,CLR,,0.00,WeatherDisplay:10.37,2013-04-05 21:30:00,
2013-04-05 14:40:00,83.0,20.8,29.92,West,261,13.0,20.0,10,0.00,CLR,,0.00,WeatherDisplay:10.37,2013-04-05 21:40:00,
2013-04-05 15:00:00,82.4,22.6,29.91,West,273,15.0,23.0,11,0.00,CLR,,0.00,WeatherDisplay:10.37,2013-04-05 22:00:00,
2013-04-05 15:10:00,82.0,22.3,29.91,WSW,245,7.0,22.0,11,0.00,CLR,,0.00,WeatherDisplay:10.37,2013-04-05 22:10:00,
2013-04-05 15:20:00,83.0,23.0,29.91,WSW,250,14.0,26.0,11,0.00,CLR,,0.00,WeatherDisplay:10.37,2013-04-05 22:20:00,
2013-04-05 15:30:00,83.0,20.8,29.91,West,263,13.0,20.0,10,0.00,CLR,,0.00,WeatherDisplay:10.37,2013-04-05 22:30:00,
2013-04-05 15:40:00,83.0,20.8,29.91,West,274,15.0,23.0,10,0.00,CLR,,0.00,WeatherDisplay:10.37,2013-04-05 22:40:00,
2013-04-05 15:50:00,82.0,22.3,29.91,West,260,17.0,25.0,11,0.00,CLR,,0.00,WeatherDisplay:10.37,2013-04-05 22:50:00,
2013-04-05 16:00:00,82.0,20.0,29.91,West,260,14.0,25.0,10,0.00,CLR,,0.00,WeatherDisplay:10.37,2013-04-05 23:00:00,
2013-04-05 16:10:00,82.0,20.0,29.91,West,265,14.0,25.0,10,0.00,CLR,,0.00,WeatherDisplay:10.37,2013-04-05 23:10:00,
2013-04-05 16:20:00,82.0,20.0,29.91,West,269,14.0,22.0,10,0.00,CLR,,0.00,WeatherDisplay:10.37,2013-04-05 23:20:00,
2013-04-05 16:30:00,82.0,20.0,29.91,West,260,13.0,20.0,10,0.00,CLR,,0.00,WeatherDisplay:10.37,2013-04-05 23:30:00,
2013-04-05 16:40:00,81.0,19.3,29.92,West,269,13.0,20.0,10,0.00,CLR,,0.00,WeatherDisplay:10.37,2013-04-05 23:40:00,
2013-04-05 16:50:00,81.0,21.5,29.92,WSW,258,13.0,22.0,11,0.00,CLR,,0.00,WeatherDisplay:10.37,2013-04-05 23:50:00,
2013-04-05 17:00:00,80.0,20.7,29.92,West,264,15.0,23.0,11,0.00,CLR,,0.00,WeatherDisplay:10.37,2013-04-06 00:00:00,
2013-04-05 17:10:00,80.0,20.7,29.93,West,267,15.0,22.0,11,0.00,CLR,,0.00,WeatherDisplay:10.37,2013-04-06 00:10:00,
2013-04-05 17:20:00,79.0,20.0,29.93,West,263,10.0,20.0,11,0.00,CLR,,0.00,WeatherDisplay:10.37,2013-04-06 00:20:00,
2013-04-05 17:30:00,79.0,20.0,29.93,West,259,16.0,22.0,11,0.00,CLR,,0.00,WeatherDisplay:10.37,2013-04-06 00:30:00,
2013-04-05 17:40:00,79.0,22.0,29.93,West,266,12.0,22.0,12,0.00,CLR,,0.00,WeatherDisplay:10.37,2013-04-06 00:40:00,
2013-04-05 17:50:00,78.0,21.2,29.94,West,266,12.0,22.0,12,0.00,CLR,,0.00,WeatherDisplay:10.37,2013-04-06 00:50:00,
2013-04-05 18:00:00,78.0,21.2,29.95,WSW,251,9.0,20.0,12,0.00,CLR,,0.00,WeatherDisplay:10.37,2013-04-06 01:00:00,
2013-04-05 18:10:00,77.0,22.4,29.95,WSW,239,13.0,17.0,13,0.00,CLR,,0.00,WeatherDisplay:10.37,2013-04-06 01:10:00,
2013-04-05 18:20:00,76.0,21.6,29.95,WSW,244,10.0,17.0,13,0.00,CLR,,0.00,WeatherDisplay:10.37,2013-04-06 01:20:00,
2013-04-05 18:30:00,75.0,22.5,29.97,WSW,242,9.0,18.0,14,0.00,CLR,,0.00,WeatherDisplay:10.37,2013-04-06 01:30:00,
2013-04-05 18:40:00,74.0,24.9,29.97,West,259,9.0,13.0,16,0.00,CLR,,0.00,WeatherDisplay:10.37,2013-04-06 01:40:00,
2013-04-05 18:50:00,73.0,24.1,29.98,WSW,249,8.0,13.0,16,0.00,CLR,,0.00,WeatherDisplay:10.37,2013-04-06 01:50:00,
2013-04-05 19:00:00,73.0,24.1,29.98,WSW,254,9.0,17.0,16,0.00,CLR,,0.00,WeatherDisplay:10.37,2013-04-06 02:00:00,
2013-04-05 19:10:00,72.0,24.8,29.99,WSW,248,7.0,12.0,17,0.00,CLR,,0.00,WeatherDisplay:10.37,2013-04-06 02:10:00,
2013-04-05 19:20:00,71.0,25.3,30.00,WSW,246,8.0,12.0,18,0.00,CLR,,0.00,WeatherDisplay:10.37,2013-04-06 02:20:00,
2013-04-05 19:30:00,71.0,25.3,30.00,WSW,249,8.0,13.0,18,0.00,CLR,,0.00,WeatherDisplay:10.37,2013-04-06 02:30:00,
2013-04-05 19:40:00,70.0,24.5,30.01,WSW,249,8.0,13.0,18,0.00,CLR,,0.00,WeatherDisplay:10.37,2013-04-06 02:40:00,
2013-04-05 19:50:00,69.0,25.0,30.02,WSW,255,7.0,12.0,19,0.00,CLR,,0.00,WeatherDisplay:10.37,2013-04-06 02:50:00,
2013-04-05 20:00:00,69.0,25.0,30.02,WSW,249,7.0,12.0,19,0.00,CLR,,0.00,WeatherDisplay:10.37,2013-04-06 03:00:00,
2013-04-05 20:10:00,68.0,25.4,30.03,WSW,253,7.0,10.0,20,0.00,CLR,,0.00,WeatherDisplay:10.37,2013-04-06 03:10:00,
2013-04-05 20:20:00,67.0,25.7,30.04,West,270,6.0,9.0,21,0.00,CLR,,0.00,WeatherDisplay:10.37,2013-04-06 03:20:00,
2013-04-05 20:30:00,66.0,26.0,30.04,West,260,7.0,9.0,22,0.00,CLR,,0.00,WeatherDisplay:10.37,2013-04-06 03:30:00,
2013-04-05 20:40:00,66.0,26.0,30.05,West,269,7.0,9.0,22,0.00,CLR,,0.00,WeatherDisplay:10.37,2013-04-06 03:40:00,
2013-04-05 20:50:00,66.0,26.0,30.05,West,269,7.0,9.0,22,0.00,CLR,,0.00,WeatherDisplay:10.37,2013-04-06 03:50:00,
2013-04-05 21:00:00,65.0,26.3,30.06,WSW,247,6.0,9.0,23,0.00,CLR,,0.00,WeatherDisplay:10.37,2013-04-06 04:00:00,
2013-04-05 21:10:00,66.0,27.1,30.06,West,261,8.0,10.0,23,0.00,CLR,,0.00,WeatherDisplay:10.37,2013-04-06 04:10:00,
2013-04-05 21:20:00,66.0,26.0,30.05,West,259,7.0,12.0,22,0.00,CLR,,0.00,WeatherDisplay:10.37,2013-04-06 04:20:00,
2013-04-05 21:30:00,65.0,26.3,30.06,WSW,247,5.0,9.0,23,0.00,CLR,,0.00,WeatherDisplay:10.37,2013-04-06 04:30:00,
2013-04-05 21:40:00,65.0,27.3,30.06,WSW,247,7.0,9.0,24,0.00,CLR,,0.00,WeatherDisplay:10.37,2013-04-06 04:40:00,
2013-04-05 21:50:00,66.0,27.1,30.06,WSW,251,7.0,12.0,23,0.00,CLR,,0.00,WeatherDisplay:10.37,2013-04-06 04:50:00,
2013-04-05 22:00:00,66.0,27.1,30.06,WSW,249,7.0,12.0,23,0.00,CLR,,0.00,WeatherDisplay:10.37,2013-04-06 05:00:00,
2013-04-05 22:10:00,65.4,27.6,30.06,WSW,251,6.0,10.0,24,0.00,CLR,,0.00,WeatherDisplay:10.37,2013-04-06 05:10:00,
2013-04-05 22:20:00,63.4,25.9,30.07,WSW,247,3.0,7.0,24,0.00,CLR,,0.00,WeatherDisplay:10.37,2013-04-06 05:20:00,
2013-04-05 22:30:00,62.0,25.7,30.08,WSW,247,1.0,6.0,25,0.00,CLR,,0.00,WeatherDisplay:10.37,2013-04-06 05:30:00,
2013-04-05 22:40:00,62.0,24.8,30.08,West,274,2.0,8.0,24,0.00,CLR,,0.00,WeatherDisplay:10.37,2013-04-06 05:40:00,
2013-04-05 22:50:00,61.0,24.9,30.09,WNW,292,1.0,6.0,25,0.00,CLR,,0.00,WeatherDisplay:10.37,2013-04-06 05:50:00,
2013-04-05 23:10:00,59.4,24.5,30.10,NW,309,0.0,6.0,26,0.00,CLR,,0.00,WeatherDisplay:10.37,2013-04-06 06:10:00,
2013-04-05 23:20:00,58.0,25.0,30.11,NW,315,0.0,2.0,28,0.00,CLR,,0.00,WeatherDisplay:10.37,2013-04-06 06:20:00,
2013-04-05 23:30:00,58.0,25.0,30.11,NW,315,0.0,1.0,28,0.00,CLR,,0.00,WeatherDisplay:10.37,2013-04-06 06:30:00,
2013-04-05 23:40:00,57.0,24.2,30.11,NW,315,0.0,1.0,28,0.00,CLR,,0.00,WeatherDisplay:10.37,2013-04-06 06:40:00,
2013-04-05 23:50:00,55.6,25.4,30.12,NE,53,3.0,6.0,31,0.00,CLR,,0.00,WeatherDisplay:10.37,2013-04-06 06:50:00,